Weather History for St. Joseph, MO

Change the Weather History Date:

Saturday, March 2, 2013

  Actual Average Record
Temperature  
Mean Temperature 27 °F 37 °F  
Max Temperature 32 °F 48 °F 82 °F (1992)
Min Temperature 22 °F 26 °F -7 °F (1980)
Degree Days  
Heating Degree Days 38 28  
Month to date heating degree days 78 56  
Since 1 July heating degree days 4182 4364  
Cooling Degree Days 0 0  
Month to date cooling degree days 0 0  
Year to date cooling degree days 0 0  
Moisture  
Dew Point 16 °F    
Average Humidity 62    
Maximum Humidity 74    
Minimum Humidity 49    
Precipitation  
Precipitation 0.00 in 0.05 in 1.20 in (1940)
Month to date precipitation T 0.11  
Year to date precipitation 1.01 1.60  
Sea Level Pressure  
Sea Level Pressure 30.34 in    
Wind  
Wind Speed 5 mph (NNW)    
Max Wind Speed 15 mph    
Max Gust Speed 17 mph    
Visibility 10 miles    
Events      
T = Trace of Precipitation, MM = Missing Value Source: NWS Daily Summary

Daily Weather History Graph

Daily Weather History Graph

Search for Another Location

Airport:

Trip Planner

Search our weather history database for the weather conditions in past years. The results will help you decide how hot, cold, wet, or windy it might be!

Date:

Astronomy

Mar. 02, 2013 Rise Set
Actual Time 6:50 AM CST 6:13 PM CST
Civil Twilight 6:23 AM CST 6:40 PM CST
Nautical Twilight 5:52 AM CST 7:11 PM CST
Astronomical Twilight 5:21 AM CST 7:42 PM CST
Moon 11:52 PM CST (3/2) 9:20 AM CST (3/2)
Length of Visible Light 12h 16m
Length of Day
11h 22m
Waning Gibbous, 74% of the Moon is Illuminated
Mar 2
Waning Gibbous
Mar 4
Last Quarter
Mar 11
New
Mar 19
First Quarter
Mar 27
Full

Hourly Weather History & Observations

Time (CST) Temp. Windchill Dew Point Humidity Pressure Visibility Wind Dir Wind Speed Gust Speed Precip Events Conditions
12:53 AM 25.0 °F 16.3 °F 16.0 °F 69% 30.38 in 10.0 mi North 8.1 mph - N/A   Overcast
1:17 AM 24.8 °F 13.4 °F 15.8 °F 69% 30.34 in 10.0 mi North 12.7 mph - N/A   Overcast
1:53 AM 25.0 °F 14.8 °F 16.0 °F 69% 30.37 in 10.0 mi North 10.4 mph - N/A   Overcast
2:53 AM 24.1 °F 13.7 °F 16.0 °F 71% 30.36 in 10.0 mi North 10.4 mph - N/A   Overcast
3:53 AM 23.0 °F 11.7 °F 14.0 °F 68% 30.37 in 10.0 mi North 11.5 mph - N/A   Overcast
4:53 AM 23.0 °F 13.9 °F 14.0 °F 68% 30.38 in 10.0 mi NNW 8.1 mph - N/A   Overcast
5:53 AM 21.9 °F 13.4 °F 14.0 °F 72% 30.39 in 10.0 mi North 6.9 mph - N/A   Overcast
6:53 AM 21.9 °F 12.5 °F 14.0 °F 72% 30.40 in 10.0 mi NNW 8.1 mph - N/A   Overcast
7:53 AM 21.9 °F 11.7 °F 14.0 °F 72% 30.41 in 10.0 mi NNW 9.2 mph - N/A   Overcast
8:53 AM 23.0 °F 13.9 °F 14.0 °F 68% 30.40 in 10.0 mi NNW 8.1 mph - N/A   Mostly Cloudy
9:05 AM 23.0 °F 14.7 °F 14.0 °F 68% 30.36 in 10.0 mi North 6.9 mph - N/A   Scattered Clouds
9:14 AM 23.0 °F 15.8 °F 14.0 °F 68% 30.37 in 10.0 mi North 5.8 mph - N/A   Mostly Cloudy
9:53 AM 24.1 °F 15.2 °F 15.1 °F 69% 30.41 in 10.0 mi NNW 8.1 mph - N/A   Overcast
10:53 AM 26.1 °F 21.9 °F 15.1 °F 63% 30.39 in 10.0 mi NW 3.5 mph - N/A   Scattered Clouds
11:53 AM 26.1 °F - 15.1 °F 63% 30.38 in 10.0 mi Calm Calm - N/A   Clear
12:53 PM 28.9 °F - 16.0 °F 58% 30.35 in 10.0 mi Calm Calm - N/A   Clear
1:53 PM 28.0 °F - 16.0 °F 61% 30.33 in 10.0 mi Calm Calm - 0.00 in   Clear
2:53 PM 28.9 °F 25.2 °F 18.0 °F 64% 30.32 in 10.0 mi South 3.5 mph - 0.00 in   Clear
3:53 PM 30.0 °F - 17.1 °F 59% 30.30 in 10.0 mi Calm Calm - N/A   Clear
4:53 PM 32.0 °F - 16.0 °F 52% 30.29 in 10.0 mi Calm Calm - N/A   Clear
5:53 PM 28.9 °F 23.9 °F 19.0 °F 67% 30.28 in 10.0 mi SSE 4.6 mph - N/A   Overcast
7:53 PM 28.9 °F 23.9 °F 19.0 °F 67% 30.26 in 10.0 mi SSE 4.6 mph - N/A   Overcast
8:53 PM 28.9 °F 22.8 °F 18.0 °F 64% 30.25 in 10.0 mi South 5.8 mph - N/A   Overcast
9:53 PM 28.9 °F 23.9 °F 19.9 °F 69% 30.24 in 10.0 mi South 4.6 mph - N/A   Overcast
10:53 PM 28.9 °F 22.8 °F 19.9 °F 69% 30.22 in 10.0 mi SSE 5.8 mph - N/A   Overcast
11:53 PM 28.9 °F 22.8 °F 19.9 °F 69% 30.21 in 10.0 mi SSE 5.8 mph - N/A   Overcast